Wind_Speed
15 16 16 16 16 15 15 15 14 14 14 15 18 18 18 18 18 16 19 17 21 16 26 29 30 21 15 13 8 4 9 5 1 3 3 4 3 5 5 11 6 9 6 4 6 8 17 9 4 10 12 13 17 16
14 15 15 16 16 16 15 15 15 15 15 15 15 15 17 17 16 11 18 18 19 25 24 26 28 29 29 34 25 13 10 7 4 2 2 1 3 3 3 2 3 7 8 5 9 7 6 10 9 19 16 20 26 28
12 12 14 13 14 15 15 16 16 15 15 15 15 14 15 15 15 14 16 16 17 21 35 39 40 26 22 29 32 20 20 21 15 27 6 5 9 3 7 7 6 8 14 13 13 22 24 38 37 42 38 33 27 33
11 10 11 12 12 13 13 14 15 15 16 16 16 15 15 14 14 14 17 17 18 12 7 16 20 25 19 17 24 34 38 27 22 20 10 5 5 8 6 9 11 10 3 16 20 23 29 37 39 41 38 38 35 35
14 14 16 18 19 19 20 18 17 16 16 17 17 17 16 15 15 16 20 23 24 21 5 15 33 47 28 27 31 30 34 40 26 11 6 8 6 9 8 7 17 10 22 12 15 23 21 24 35 33 34 33 37 37
14 14 14 14 13 13 14 13 15 20 21 18 18 18 17 15 13 13 7 4 12 29 9 4 9 28 35 28 23 25 32 32 25 8 5 11 23 8 4 8 20 23 29 34 21 39 39 40 41 41 38 42 45 41
14 14 13 13 12 14 14 12 13 14 13 12 15 17 18 16 16 19 7 8 6 9 6 4 4 5 6 5 6 12 14 17 17 10 7 8 9 11 3 13 33 22 28 34 34 31 23 28 26 37 35 39 37 37
14 14 14 11 14 13 12 11 13 14 13 13 14 14 15 16 20 28 34 28 18 9 7 4 5 6 9 3 3 4 4 6 8 5 4 3 2 4 6 17 19 19 23 25 26 26 29 34 37 36 30 28 28 29
12 12 12 14 12 13 13 13 12 12 11 12 13 13 13 17 15 25 6 6 20 18 4 5 3 4 4 3 4 4 5 3 5 3 3 6 3 6 7 5 10 12 12 19 26 27 27 24 26 26 27 28 30 30
14 13 15 13 12 15 12 11 12 11 11 12 11 4 6 7 9 9 4 9 16 14 11 5 7 4 4 2 3 2 5 2 3 5 5 3 4 15 15 7 12 15 18 19 18 16 16 19 24 28 31 32 29 25
13 14 13 15 14 13 12 12 9 9 7 2 5 6 7 11 9 7 6 6 9 5 11 9 21 10 11 2 3 6 2 2 3 3 3 3 4 1 7 12 15 15 18 20 17 19 21 22 24 29 31 27 13 15
14 14 15 12 13 13 13 9 7 8 4 5 8 13 6 4 5 4 3 3 5 5 5 4 8 11 6 8 2 3 2 2 6 2 3 3 3 4 8 13 16 18 22 20 18 19 18 19 19 20 19 11 7 4
13 10 12 14 12 11 9 7 6 7 8 6 4 3 3 4 5 6 7 4 3 4 8 9 3 7 6 8 2 2 3 5 2 3 3 2 5 12 8 10 15 17 19 17 18 16 14 13 13 13 9 5 1 5
10 12 14 11 9 8 8 8 8 6 6 5 5 5 6 6 6 6 4 3 8 4 5 9 4 4 4 3 2 4 4 1 3 3 4 3 13 7 6 9 13 16 16 14 15 15 13 9 8 7 4 2 4 4
12 12 10 8 8 10 9 10 8 9 7 6 6 5 7 9 10 6 11 11 15 18 7 2 2 6 3 3 4 2 2 4 4 4 3 5 7 5 6 8 9 12 11 12 13 11 10 7 5 3 2 1 5 12
8 7 6 4 3 8 8 6 8 6 5 6 8 5 9 1 4 5 3 4 9 8 6 2 2 2 4 3 4 7 3 5 4 3 6 5 6 5 7 7 7 7 6 8 10 12 12 11 10 10 9 9 9 11
9 8 4 7 6 9 8 4 5 7 7 6 6 16 21 15 12 16 10 3 9 8 1 1 4 8 1 3 4 4 5 4 6 8 7 7 7 5 6 6 8 7 3 3 5 8 11 13 14 16 19 15 12 11
13 11 8 8 6 6 7 6 5 6 8 12 4 13 17 15 18 19 18 24 12 3 3 4 4 3 4 4 3 3 9 10 9 8 9 9 8 7 5 3 4 5 3 1 2 6 7 8 11 14 14 13 13 13
13 15 13 12 11 8 4 6 10 5 10 10 15 20 22 23 22 20 16 13 17 15 5 4 5 3 5 3 4 13 12 11 13 13 12 10 9 7 6 5 4 4 4 4 1 3 5 4 4 4 5 5 10 11
14 13 14 12 12 8 6 6 9 7 3 4 9 15 15 15 16 17 13 14 18 7 4 4 5 11 13 22 21 19 17 19 17 12 12 13 10 9 9 8 5 3 6 5 4 1 3 4 1 2 3 3 5 7
11 12 11 13 14 11 7 6 7 8 7 5 8 4 7 9 11 18 19 19 13 5 5 12 18 23 25 26 26 26 28 25 15 13 15 12 14 13 11 10 9 6 8 8 5 1 1 2 2 3 2 3 4 5
13 8 8 8 6 6 10 10 7 4 10 14 21 24 11 2 10 18 23 8 6 16 23 25 27 26 22 25 28 31 33 28 25 19 20 15 18 17 15 12 9 9 10 8 3 2 2 1 4 4 4 6 6 7
13 10 9 7 7 7 6 12 8 8 4 3 6 3 3 3 9 15 2 8 13 13 12 13 16 22 27 30 29 29 29 27 23 26 22 18 18 15 15 12 10 10 10 7 5 6 4 4 6 6 7 7 7 9
9 7 7 7 13 5 4 5 8 5 6 4 3 5 4 4 11 2 4 1 8 16 18 19 21 24 25 21 24 26 26 27 25 25 23 20 20 18 14 12 10 8 7 8 8 7 6 6 9 10 9 10 9 7
6 7 7 5 7 2 2 3 3 4 4 6 6 5 4 5 2 2 0 4 18 24 25 26 23 21 23 29 28 25 22 26 30 29 25 23 21 18 15 13 11 10 10 10 10 9 7 8 12 12 11 10 9 8
4 6 6 7 4 5 5 3 4 6 2 1 4 4 5 1 2 2 1 11 16 23 28 27 26 29 30 27 27 23 23 22 26 30 28 27 25 23 21 19 16 14 12 11 11 11 9 9 9 12 13 11 10 10
4 5 4 5 5 5 2 4 5 2 2 2 2 3 3 2 1 2 10 14 23 26 26 22 19 21 26 27 19 20 24 26 30 31 28 26 20 15 18 21 18 14 12 12 12 12 12 12 11 11 11 10 10 10
6 4 2 3 3 3 2 1 2 4 3 1 2 2 3 0 2 9 10 20 21 23 22 19 14 12 11 7 10 22 27 25 23 31 32 26 21 17 13 14 15 14 11 10 9 10 11 11 11 11 10 9 9 9
3 1 4 2 2 3 3 3 3 2 1 2 4 1 2 3 8 10 15 17 17 20 24 26 24 14 11 12 13 19 21 23 29 36 36 32 28 23 18 17 16 13 12 11 11 10 10 10 10 10 9 8 8 7
3 5 2 1 2 2 1 2 1 1 2 5 8 7 8 8 13 13 16 19 22 22 21 22 24 25 24 21 20 14 11 14 26 35 36 33 28 25 22 20 18 13 11 11 11 11 11 11 11 11 11 10 10 9
6 4 1 2 2 1 6 1 1 7 6 5 8 7 6 5 5 18 20 18 17 20 23 25 26 27 29 28 25 24 23 15 11 16 22 26 25 23 20 18 17 15 13 12 12 13 12 11 10 10 9 10 9 7
4 2 2 0 2 3 4 2 1 3 3 4 4 3 5 2 2 8 20 18 19 19 20 21 23 23 20 19 19 21 21 19 20 20 21 21 20 19 17 16 15 14 13 13 12 11 9 9 10 11 13 12 12 11
4 2 3 2 5 4 3 6 1 2 4 3 3 3 3 2 2 8 10 15 14 16 16 15 16 15 15 15 16 15 15 14 13 13 14 12 9 8 8 8 8 7 7 7 10 12 11 11 10 10 11 10 10 10
Wind_Direction
247 249 249 257 261 263 267 268 269 269 270 263 259 257 256 256 255 246 254 254 245 261 266 255 253 240 247 256 253 267 328 288 312 227 213 235 210 226 240 235 241 221 187 205 223 241 265 223 205 193 214 249 271 285
247 246 248 250 258 264 265 266 268 271 272 269 266 266 264 258 257 249 257 256 257 250 263 268 268 261 249 260 251 237 235 261 261 285 264 287 289 269 255 254 310 257 208 213 202 222 246 248 231 223 247 271 272 271
257 251 250 253 256 261 265 269 272 272 273 272 271 272 270 266 260 250 254 249 257 271 278 268 268 283 275 257 258 239 253 239 237 239 261 242 243 178 255 256 235 250 246 247 259 254 253 257 260 271 277 272 266 276
270 261 251 256 265 266 268 271 271 273 273 275 278 278 274 271 268 260 258 253 245 260 271 281 283 272 281 260 251 245 253 240 242 238 234 248 252 209 246 255 252 239 232 248 254 267 269 268 265 266 271 269 276 276
266 265 262 264 265 262 259 258 257 260 263 265 267 269 270 271 272 272 269 258 240 221 264 287 291 286 279 268 256 250 245 243 239 241 229 243 235 252 246 258 255 236 247 245 255 261 257 272 273 276 274 277 280 275
263 269 274 277 275 278 274 273 271 261 255 251 257 259 264 264 267 276 295 265 249 228 250 274 287 287 288 281 260 245 246 239 229 235 233 233 235 205 254 254 263 263 256 246 253 262 266 267 275 278 276 280 284 280
264 271 272 276 283 280 289 285 282 282 278 282 267 260 246 249 243 236 231 186 36 202 246 268 286 276 304 283 242 244 243 223 219 228 223 234 225 211 253 268 276 280 279 278 275 272 270 270 270 284 282 281 292 293
266 269 272 275 275 276 285 288 285 284 287 284 284 279 260 247 248 251 247 236 242 285 275 266 271 306 248 218 269 221 236 229 230 235 224 211 220 214 252 250 280 296 299 295 299 296 268 280 282 279 284 292 297 296
270 272 273 271 270 280 284 283 288 292 291 295 290 289 266 250 249 262 288 265 236 213 234 221 217 263 183 238 252 258 236 241 237 236 226 183 211 227 246 296 312 325 312 305 298 288 290 285 281 285 291 295 302 301
270 273 275 280 278 274 280 286 287 290 289 289 277 217 228 220 235 236 234 170 178 200 228 253 213 242 207 155 268 273 215 235 248 233 176 220 252 261 276 314 324 329 330 325 309 306 308 295 293 297 298 300 299 299
272 266 277 274 277 280 277 275 275 296 307 245 204 226 243 271 239 205 217 212 183 212 206 225 217 239 247 164 216 219 268 222 256 262 188 227 258 237 336 328 330 325 321 314 309 303 305 294 294 295 302 313 300 310
261 265 271 277 277 271 273 263 255 269 259 258 295 303 280 242 241 223 222 212 194 228 218 180 212 203 213 199 191 195 251 252 249 190 233 246 278 303 320 326 329 321 324 323 320 316 312 310 305 306 308 305 310 316
266 273 271 274 268 265 251 236 227 252 276 265 228 257 232 240 224 221 211 209 200 213 208 188 189 187 177 183 183 200 244 234 347 248 265 245 245 270 296 322 328 329 331 331 333 327 326 322 322 325 313 325 99 130
267 270 274 261 248 227 206 225 242 232 199 205 217 240 214 206 222 215 220 200 231 234 226 197 146 185 174 171 187 227 235 309 291 242 238 235 248 332 325 326 323 334 342 345 347 345 341 333 329 323 323 276 190 151
263 266 254 229 234 238 230 246 189 199 195 213 220 239 224 230 244 263 257 268 289 300 269 151 202 175 187 195 196 231 261 247 229 238 236 259 275 286 319 321 323 324 352 11 11 6 8 4 357 359 354 264 191 161
256 234 252 188 215 197 167 178 200 206 225 222 230 256 269 331 280 285 270 309 326 341 322 231 205 246 224 195 177 209 206 228 247 221 247 262 247 276 313 304 292 303 4 23 32 39 44 52 63 72 89 101 123 139
210 228 186 210 188 198 225 244 212 210 230 233 238 239 260 282 270 279 287 305 328 325 246 279 236 219 135 204 213 189 209 225 237 254 254 245 264 252 271 265 258 266 269 357 21 42 42 47 67 77 74 79 90 101
230 227 217 224 224 213 226 230 238 243 240 234 241 265 264 267 276 287 292 301 300 246 218 231 270 247 237 209 224 237 239 259 262 263 260 257 243 240 237 281 259 240 240 282 28 29 32 36 49 65 74 82 95 102
245 241 233 228 235 220 212 221 209 259 242 237 246 253 258 270 276 282 280 293 299 288 252 237 227 221 230 236 224 264 276 264 265 275 251 245 241 225 228 261 250 223 216 183 167 6 11 24 43 45 81 101 107 107
245 243 236 232 230 219 206 236 211 250 250 253 256 262 263 267 274 276 290 296 293 274 238 218 234 249 268 283 287 289 303 293 277 246 235 230 225 221 229 237 228 224 197 194 188 159 342 340 52 72 54 95 121 125
224 233 239 232 236 238 228 226 230 253 280 280 281 325 296 291 294 287 285 283 262 238 245 248 269 280 282 281 283 282 285 280 279 277 269 245 222 212 220 223 213 217 212 198 194 195 340 28 118 118 105 118 122 137
251 253 235 234 225 229 241 227 228 239 263 267 281 278 269 270 265 272 270 252 240 260 263 267 272 280 284 285 284 276 274 279 270 261 257 253 211 201 203 205 216 221 207 197 211 225 213 198 151 136 135 134 141 150
239 226 216 208 216 233 246 214 213 218 232 239 235 231 251 235 241 263 230 241 257 268 295 297 294 289 287 281 278 272 267 270 259 253 240 226 216 205 200 201 208 207 200 196 206 200 200 195 174 161 152 147 143 137
208 187 202 215 201 243 223 214 210 222 218 228 239 249 246 237 261 204 237 66 352 344 340 327 322 313 297 288 282 266 255 256 239 242 226 205 198 195 194 199 199 212 217 207 197 198 200 196 179 169 162 161 154 150
188 212 201 217 208 193 233 264 236 245 239 234 271 270 270 225 185 234 188 340 343 341 337 333 322 315 296 295 286 267 255 247 228 226 206 200 192 179 188 193 197 200 196 189 183 183 177 174 175 176 171 175 175 165
195 225 200 193 204 183 213 206 213 212 192 248 238 287 317 336 44 65 4 348 334 329 327 324 317 310 300 295 282 262 246 231 225 211 196 192 192 191 186 184 184 183 186 185 183 179 176 168 171 178 179 175 172 172
204 266 226 245 254 233 254 264 229 128 197 229 281 328 358 356 353 12 346 347 334 334 330 321 313 310 302 299 267 239 237 220 213 206 191 187 196 203 194 187 189 182 170 176 178 178 174 170 166 166 170 178 188 195
229 189 195 294 296 298 251 266 204 204 218 273 67 57 137 180 272 334 329 335 341 342 346 351 343 329 329 302 205 204 194 191 201 189 170 173 176 173 169 173 177 170 167 167 169 171 173 172 170 172 174 172 171 173
248 302 322 263 230 258 238 206 214 172 149 139 121 122 99 66 15 3 356 352 353 360 4 8 14 24 51 72 129 161 169 179 180 165 164 162 164 170 172 172 175 168 173 169 161 158 159 161 162 165 168 171 173 174
285 336 277 87 152 261 333 351 48 114 114 132 121 108 93 86 47 28 16 13 16 18 19 23 26 34 42 56 68 86 111 162 171 173 168 167 166 166 170 174 175 170 175 178 180 178 175 174 177 183 186 188 187 184
296 275 243 213 255 334 339 265 179 136 124 110 129 124 141 155 46 29 24 16 18 24 26 30 35 36 43 49 56 66 67 79 117 164 170 158 155 157 164 170 175 175 184 191 199 199 197 196 201 203 208 215 217 216
284 283 145 320 270 327 340 354 174 99 99 113 113 116 138 126 60 25 14 12 21 25 26 23 27 34 43 52 58 66 75 84 96 112 129 136 143 152 163 175 188 205 221 225 200 170 175 185 203 215 221 225 231 237
287 302 41 32 5 358 2 342 116 83 82 92 83 79 78 79 92 29 7 5 11 14 18 19 15 19 33 48 56 61 66 75 85 93 101 108 115 133 142 147 154 166 179 191 200 201 187 183 198 213 219 221 225 214
Height
1446 1447 1448 1448 1449 1449 1449 1450 1450 1450 1450 1450 1450 1450 1450 1451 1452 1454 1453 1454 1455 1449 1440 1440 1439 1439 1437 1439 1440 1436 1438 1433 1432 1431 1429 1424 1424 1412 1402 1395 1394 1395 1405 1406 1401 1397 1382 1359 1361 1367 1356 1349 1349 1349
1440 1441 1442 1442 1443 1443 1444 1444 1444 1445 1445 1445 1444 1444 1445 1445 1446 1447 1447 1448 1448 1445 1433 1431 1429 1427 1429 1428 1433 1433 1431 1428 1425 1423 1419 1414 1410 1405 1401 1394 1390 1392 1383 1386 1385 1376 1357 1354 1351 1349 1346 1346 1346 1345
1435 1435 1436 1437 1437 1438 1438 1438 1438 1439 1439 1440 1440 1439 1439 1439 1440 1441 1440 1442 1442 1438 1428 1420 1410 1415 1416 1414 1418 1425 1419 1419 1417 1416 1417 1411 1407 1405 1397 1386 1382 1376 1374 1374 1376 1349 1350 1344 1344 1339 1339 1336 1335 1334
1430 1431 1431 1432 1432 1432 1433 1433 1433 1434 1434 1435 1435 1434 1434 1434 1435 1435 1435 1436 1437 1435 1427 1403 1405 1403 1403 1405 1406 1405 1403 1407 1409 1410 1407 1401 1397 1391 1384 1378 1372 1365 1365 1358 1351 1344 1341 1335 1333 1329 1330 1327 1326 1323
1426 1426 1426 1426 1426 1426 1427 1427 1427 1427 1428 1429 1429 1429 1430 1430 1430 1430 1428 1427 1428 1432 1418 1403 1398 1391 1390 1390 1393 1396 1396 1397 1400 1401 1395 1390 1387 1387 1376 1372 1353 1356 1348 1353 1342 1332 1333 1326 1322 1323 1322 1318 1315 1312
1420 1420 1420 1420 1420 1420 1419 1419 1419 1420 1420 1420 1422 1423 1424 1424 1426 1426 1422 1417 1415 1419 1422 1408 1389 1382 1379 1379 1381 1384 1383 1387 1392 1388 1382 1378 1375 1377 1365 1350 1329 1338 1336 1333 1328 1324 1322 1317 1313 1311 1310 1307 1303 1300
1415 1415 1415 1414 1414 1415 1414 1413 1413 1414 1414 1413 1413 1414 1416 1417 1419 1418 1417 1416 1413 1415 1417 1404 1389 1377 1376 1375 1376 1375 1376 1377 1379 1377 1371 1368 1367 1368 1355 1342 1311 1330 1329 1324 1320 1317 1313 1309 1305 1301 1300 1297 1293 1289
1409 1409 1409 1409 1409 1409 1408 1408 1408 1408 1409 1409 1409 1409 1410 1411 1410 1406 1405 1410 1414 1415 1412 1404 1390 1380 1374 1373 1374 1372 1372 1371 1367 1363 1362 1359 1360 1356 1343 1320 1322 1322 1320 1316 1312 1309 1305 1300 1297 1295 1293 1290 1284 1279
1404 1404 1404 1404 1403 1403 1403 1403 1403 1403 1403 1403 1403 1403 1404 1404 1402 1395 1397 1399 1405 1414 1405 1396 1388 1386 1372 1372 1372 1370 1369 1365 1362 1358 1354 1355 1350 1342 1323 1322 1322 1321 1319 1313 1307 1303 1298 1295 1291 1289 1287 1283 1278 1273
1397 1398 1399 1399 1399 1398 1397 1398 1399 1398 1399 1398 1399 1399 1397 1393 1392 1394 1394 1393 1397 1397 1395 1381 1376 1374 1371 1370 1370 1370 1365 1360 1356 1349 1347 1345 1335 1324 1323 1321 1320 1317 1314 1311 1305 1298 1295 1292 1289 1285 1281 1278 1274 1270
1392 1392 1393 1393 1394 1394 1394 1393 1394 1395 1395 1394 1394 1392 1390 1389 1388 1388 1385 1384 1382 1378 1373 1366 1366 1364 1366 1368 1368 1364 1360 1354 1350 1345 1344 1337 1328 1321 1321 1319 1317 1314 1311 1307 1303 1299 1294 1290 1286 1280 1275 1272 1269 1267
1386 1387 1387 1387 1388 1389 1389 1390 1391 1391 1392 1392 1392 1390 1388 1386 1384 1382 1376 1372 1371 1367 1358 1356 1355 1358 1358 1359 1360 1359 1356 1354 1344 1342 1338 1330 1324 1321 1318 1315 1313 1310 1306 1302 1298 1295 1290 1286 1282 1278 1274 1272 1270 1267
1381 1381 1382 1382 1383 1383 1384 1386 1387 1388 1389 1390 1391 1389 1386 1382 1381 1373 1376 1360 1361 1353 1348 1348 1350 1351 1354 1355 1356 1357 1353 1348 1341 1337 1332 1325 1319 1313 1312 1311 1310 1307 1304 1300 1296 1292 1288 1284 1280 1277 1274 1273 1272 1270
1376 1377 1377 1377 1378 1379 1380 1382 1383 1384 1386 1388 1387 1385 1376 1369 1364 1355 1351 1349 1347 1345 1345 1344 1346 1349 1348 1351 1351 1349 1346 1343 1345 1338 1327 1319 1313 1314 1312 1311 1309 1306 1304 1300 1296 1292 1288 1284 1281 1278 1276 1275 1274 1274
1371 1372 1372 1373 1374 1375 1376 1378 1379 1380 1381 1382 1380 1372 1361 1351 1348 1348 1347 1347 1347 1345 1344 1343 1343 1343 1344 1345 1345 1345 1344 1340 1333 1330 1321 1312 1312 1312 1311 1310 1309 1307 1304 1301 1298 1294 1291 1287 1284 1282 1280 1278 1278 1278
1366 1368 1369 1370 1370 1372 1373 1375 1377 1378 1377 1374 1368 1359 1350 1349 1347 1346 1345 1346 1345 1344 1342 1341 1340 1339 1338 1337 1339 1338 1335 1330 1323 1317 1311 1310 1310 1310 1310 1310 1309 1308 1306 1304 1302 1299 1296 1292 1289 1287 1284 1283 1283 1283
1364 1364 1366 1367 1368 1370 1371 1372 1373 1373 1368 1362 1353 1350 1349 1347 1346 1344 1344 1343 1344 1344 1342 1340 1337 1332 1328 1331 1327 1324 1325 1317 1311 1309 1308 1308 1308 1309 1309 1309 1308 1308 1307 1306 1305 1303 1300 1298 1295 1292 1290 1291 1291 1291
1360 1361 1363 1364 1366 1367 1368 1369 1370 1364 1356 1351 1350 1347 1345 1343 1341 1340 1339 1340 1340 1339 1337 1336 1331 1327 1325 1315 1317 1313 1310 1308 1308 1307 1307 1307 1307 1307 1307 1307 1307 1307 1307 1307 1306 1305 1303 1302 1300 1299 1299 1300 1300 1301
1354 1357 1359 1361 1362 1363 1364 1363 1363 1355 1346 1344 1342 1341 1340 1338 1336 1336 1335 1335 1335 1334 1333 1328 1325 1319 1315 1311 1311 1309 1308 1306 1305 1305 1305 1305 1304 1305 1306 1307 1307 1307 1307 1307 1307 1306 1305 1304 1304 1304 1305 1305 1306 1306
1350 1352 1355 1357 1358 1359 1359 1355 1354 1349 1341 1338 1336 1336 1335 1333 1332 1331 1331 1330 1329 1328 1325 1320 1316 1314 1313 1308 1307 1307 1305 1303 1302 1302 1302 1303 1303 1303 1305 1306 1306 1307 1307 1307 1308 1308 1307 1306 1306 1306 1306 1307 1308 1309
1346 1348 1350 1352 1353 1353 1350 1347 1345 1341 1337 1335 1333 1332 1331 1329 1327 1326 1325 1325 1323 1321 1315 1312 1310 1309 1308 1307 1305 1302 1303 1301 1299 1299 1300 1300 1301 1301 1303 1304 1305 1306 1307 1308 1308 1309 1309 1308 1307 1308 1309 1309 1310 1311
1342 1345 1346 1347 1348 1347 1343 1340 1340 1338 1337 1332 1332 1330 1327 1326 1322 1320 1316 1316 1313 1310 1308 1306 1303 1302 1299 1298 1297 1297 1296 1296 1296 1295 1294 1297 1298 1298 1300 1302 1304 1305 1306 1307 1308 1309 1309 1309 1309 1310 1310 1311 1312 1313
1339 1341 1342 1344 1344 1340 1335 1333 1334 1332 1332 1326 1324 1323 1320 1317 1313 1312 1310 1306 1304 1303 1301 1299 1296 1294 1292 1290 1288 1287 1287 1289 1290 1291 1290 1291 1294 1296 1298 1300 1302 1304 1305 1306 1307 1308 1309 1310 1310 1311 1312 1313 1314 1315
1335 1337 1337 1335 1334 1332 1328 1326 1325 1324 1322 1321 1319 1317 1313 1309 1307 1306 1305 1301 1304 1300 1297 1294 1291 1286 1283 1280 1277 1277 1278 1280 1282 1284 1287 1288 1291 1294 1296 1299 1301 1303 1304 1305 1306 1308 1309 1310 1311 1313 1314 1315 1317 1318
1332 1329 1329 1326 1325 1326 1326 1322 1318 1317 1320 1314 1313 1315 1307 1302 1305 1303 1299 1302 1300 1297 1294 1290 1287 1283 1280 1272 1269 1268 1270 1272 1274 1277 1281 1284 1288 1291 1294 1298 1300 1301 1303 1304 1306 1307 1309 1310 1312 1314 1316 1318 1319 1321
1327 1319 1319 1315 1317 1318 1316 1321 1320 1314 1312 1315 1308 1303 1301 1301 1303 1301 1304 1302 1300 1296 1291 1286 1281 1275 1269 1266 1262 1260 1261 1265 1269 1272 1275 1279 1284 1286 1291 1295 1298 1301 1302 1304 1306 1307 1309 1311 1312 1314 1317 1319 1321 1322
1323 1317 1312 1311 1310 1309 1308 1306 1305 1306 1309 1308 1306 1306 1306 1303 1303 1305 1303 1302 1298 1293 1287 1282 1277 1271 1263 1254 1252 1253 1256 1259 1262 1265 1271 1277 1282 1286 1288 1292 1296 1299 1301 1303 1305 1307 1308 1311 1313 1315 1318 1320 1322 1323
1311 1309 1312 1310 1308 1307 1305 1306 1307 1307 1306 1304 1305 1312 1315 1315 1315 1309 1306 1302 1297 1291 1284 1278 1271 1265 1259 1252 1249 1249 1252 1255 1260 1261 1267 1276 1282 1285 1289 1292 1296 1299 1301 1303 1305 1307 1309 1311 1314 1316 1318 1320 1322 1324
1308 1308 1308 1309 1307 1306 1302 1303 1303 1302 1302 1303 1309 1311 1311 1313 1313 1310 1306 1301 1296 1291 1284 1277 1269 1263 1258 1253 1245 1248 1251 1255 1257 1260 1266 1272 1277 1284 1288 1291 1295 1298 1301 1303 1305 1307 1309 1311 1314 1316 1318 1320 1322 1324
1308 1307 1306 1306 1307 1304 1302 1302 1302 1301 1302 1302 1304 1309 1312 1314 1313 1310 1306 1301 1296 1291 1287 1281 1275 1268 1262 1257 1254 1254 1255 1257 1258 1261 1265 1270 1275 1281 1286 1291 1295 1298 1301 1303 1305 1307 1309 1312 1314 1316 1317 1319 1321 1323
1307 1305 1304 1304 1304 1303 1302 1301 1301 1301 1302 1304 1305 1307 1310 1312 1312 1310 1307 1304 1300 1296 1291 1285 1281 1276 1271 1267 1265 1263 1262 1264 1263 1266 1269 1274 1279 1284 1288 1292 1295 1298 1301 1303 1305 1307 1309 1311 1313 1315 1317 1318 1320 1321
1306 1304 1305 1305 1303 1303 1302 1301 1300 1301 1304 1305 1307 1309 1310 1311 1312 1312 1310 1307 1303 1299 1296 1293 1289 1286 1284 1282 1279 1278 1277 1276 1274 1275 1277 1279 1283 1286 1289 1292 1295 1298 1300 1301 1303 1305 1307 1309 1311 1313 1315 1317 1319 1320
1305 1304 1303 1303 1303 1302 1302 1301 1300 1302 1304 1306 1308 1310 1311 1312 1314 1315 1313 1310 1307 1304 1301 1299 1297 1294 1292 1289 1288 1287 1285 1285 1285 1284 1284 1286 1287 1289 1291 1293 1295 1297 1299 1300 1302 1303 1306 1308 1310 1312 1313 1315 1316 1318